Location: LDNL
(36.4545°S, 141.6685°E)
Time: 12:17:53
(UTC+10:00)

Explorer 7 - Pass Details

Date: 20 August 2022
Orbit: 482 x 668 km, 50.3° (Epoch: 26 September)

Event Time Altitude Azimuth Distance (km) Brightness Sun altitude
Rises 21:21:21 0° 228° (SW) 2,984 11.3 -40.1°
Enters shadow 21:23:27 - 222° (SW) 2,199 10.4 -40.5°
Reaches altitude 10° 21:23:52 10° 220° (SW) 2,045 - -40.6°
Maximum altitude 21:28:20 41° 149° (SSE) 903 - -41.5°
Drops below altitude 10° 21:32:32 10° 78° (ENE) 1,924 - -42.3°
Sets 21:34:50 0° 71° (ENE) 2,785 - -42.7°
